Content
SEND FEEDBACK

Daily
Averages
Monthly
Summary
Kuwait

KUWAIT CITY, KUWAIT


Home > Middle East > Kuwait
Elevation: 180 feet     Latitude: 29 13N     Longitude: 047 59E

WEATHER
 
SELECT A DAY
Number of Records: 225,668;   Date Range: 7/1/96 - 12/16/14
 
SHARE

PRINT THIS DATA

[ ← Previous Day ]
WEATHER ALMANAC - FEBRUARY 18, 2013
[ Next Day → ]
[ °C ]   °F
Weather ElementAverageHighLow
Temperature63.8 °F73.4 °F (2:00 pm)51.8 °F (7:00 am)
Dewpoint34 °F41 °F (4:00 am)23 °F (4:00 pm)
Humidity34.3 %67 % (7:00 am)8 % (3:00 pm)
Barometer29.97 in30.01 in (9:00 am)29.92 in (3:00 pm)
Wind Speed6.6 mph12.7 mph (1:00 pm)
Weather ElementAverage
Visibility4.9 mi
Wind DirectionSSW (218.9 °)

Weather ElementTotal
Precipitation---
Heating Degree Days2.4 (Base 65)
Growing Degree Days12.6 (Base 50)
Averaged from 27 records on February 18, 2013
WEATHER CONDITIONS BREAKOUT
WIND DIRECTION BREAKOUT
WEATHER BY HOUR - FEBRUARY 18, 2013
[ °C ]   °F
Local TimeTemperatureDewpointHumidityBarometerVisibilityWind DirectionWind SpeedGust SpeedPrecipitationEventsConditions
1:00 AM62.6 °F35.6 °F37 %29.98 inNorth (350°)9.2 mphClear
2:00 AM60.8 °F37.4 °F42 %29.98 inNorth (350°)10.4 mphClear
3:00 AM60.0 °F38.0 °F32 %29.97 in6.0 miNorth (350°)9.2 mphClear
3:00 AM60.8 °F37.4 °F42 %29.95 inNorth (350°)9.2 mphClear
4:00 AM59.0 °F41.0 °F51 %29.95 inNorth (350°)9.2 mphClear
5:00 AM59.0 °F41.0 °F51 %29.95 inNorth (350°)8.1 mphClear
6:00 AM57.2 °F41.0 °F55 %29.95 inNorth (350°)4.6 mphClear
7:00 AM51.8 °F41.0 °F67 %29.98 in4.3 miCalm
8:00 AM57.2 °F41.0 °F55 %29.98 in3.7 miCalm
9:00 AM63.0 °F40.0 °F31 %30.01 in4.0 miWest (270°)4.6 mphHaze
9:00 AM62.6 °F39.2 °F42 %30.01 in4.3 miWest (270°)4.6 mph
10:00 AM68.0 °F37.4 °F33 %30.01 in5.0 miWNW (290°)3.5 mph
11:00 AM69.8 °F32.0 °F25 %30.01 inNNW (340°)9.2 mphClear
12:00 PM71.6 °F30.2 °F22 %29.98 inNorth (10°)11.5 mphClear
1:00 PM71.6 °F26.6 °F19 %29.95 inNorth (360°)12.7 mphClear
2:00 PM73.4 °F26.6 °F18 %29.95 inNorth (350°)10.4 mphClear
3:00 PM73.0 °F24.0 °F8 %29.93 in6.0 miNorth10.4 mphClear
3:00 PM73.4 °F24.8 °F16 %29.92 inNorth (360°)10.4 mphClear
4:00 PM73.4 °F23.0 °F15 %29.92 inNorth (360°)8.1 mphClear
5:00 PM71.6 °F24.8 °F17 %29.92 inNNE (20°)9.2 mphClear
6:00 PM68.0 °F32.0 °F26 %29.95 inESE (120°)3.5 mphClear
7:00 PM62.6 °F32.0 °F32 %29.95 inSE (130°)4.6 mphClear
8:00 PM60.8 °F33.8 °F36 %29.98 inSSE (160°)3.5 mphClear
9:00 PM57.0 °F34.0 °F30 %30.00 in6.0 miSSW (210°)5.8 mph
9:00 PM57.2 °F33.8 °F41 %29.98 inSSW (210°)5.8 mphClear
10:00 PM59.0 °F33.8 °F39 %29.98 inCalmClear
11:00 PM57.2 °F35.6 °F44 %30.01 inCalmClear
Hourly data recorded from OKBK, located miles away from Kuwait City, Kuwait







STORIES FROM OUR PARTNERS